Temperature
13 13 13 13 13 13 13 13 13 13 13 13 12 12 12 12 12 12 12 12 12 12 12 12 12 12 12 12 12 12 12 12 12 12 12 12 12 12 12 12 12 12 12
13 13 13 13 13 13 13 13 13 12 12 12 12 12 12 12 12 12 11 11 11 11 11 11 11 11 11 11 11 11 11 11 11 12 12 12 12 12 12 12 12 12 12
13 13 13 13 13 13 13 13 12 12 12 12 12 12 11 11 11 11 11 11 11 11 11 11 11 11 11 11 11 11 11 11 11 11 11 11 11 11 11 11 11 11 11
12 12 12 12 12 12 12 12 12 12 12 11 11 11 11 11 11 10 10 10 10 10 10 10 10 10 10 10 10 10 10 10 10 10 10 10 10 10 11 11 11 11 11
12 12 12 12 12 12 12 12 12 12 11 11 11 11 11 10 10 10 10 10 9 9 9 10 10 9 9 9 9 9 9 9 9 9 9 10 10 10 10 10 10 10 10
11 11 11 11 11 11 11 11 11 11 11 11 11 10 10 10 10 9 9 9 9 9 9 9 9 9 9 9 9 9 9 9 9 9 9 9 9 9 9 9 9 9 9
11 11 11 11 11 11 11 10 11 11 10 10 10 10 10 9 9 9 9 9 8 8 8 8 8 8 8 8 8 8 8 8 8 8 8 8 8 8 8 8 8 8 8
10 10 10 10 10 10 10 10 10 10 10 9 9 9 9 9 9 8 8 8 8 8 8 8 8 8 8 8 8 8 8 8 8 7 7 7 7 7 7 7 7 7 8
10 10 10 10 10 10 10 10 9 9 9 9 9 8 8 8 8 8 8 8 7 7 7 7 7 7 7 7 7 7 7 7 7 7 7 6 6 6 7 7 7 7 7
9 9 9 9 10 9 9 9 9 9 9 9 8 8 8 7 7 7 7 7 7 7 7 7 7 7 7 6 6 6 6 6 6 6 6 6 6 6 6 6 6 6 6
9 9 9 9 9 9 9 9 9 9 8 8 8 8 7 7 7 6 6 7 7 7 6 6 6 6 6 6 6 6 6 6 6 6 6 5 5 5 5 5 5 5 5
9 9 9 9 9 8 8 8 8 8 8 8 7 7 7 6 6 6 5 6 6 6 6 6 6 6 5 5 5 5 5 5 5 5 5 5 5 5 5 5 5 5 5
8 8 8 8 8 8 8 8 8 8 7 7 7 7 6 6 6 5 5 5 5 5 5 5 5 5 5 5 5 5 5 5 5 5 5 5 5 5 5 5 4 4 5
8 8 8 8 8 7 7 7 7 7 7 7 7 6 6 6 5 5 5 4 4 4 4 5 5 4 4 4 4 4 4 4 4 4 4 4 4 4 4 4 4 4 4
8 7 7 7 7 7 7 7 7 7 6 6 6 6 6 5 5 5 5 4 4 3 3 4 4 4 4 4 4 4 4 4 4 4 4 4 4 4 3 3 3 3 3
7 7 7 7 7 7 7 6 6 6 6 6 6 5 5 5 5 5 4 4 4 3 3 3 3 3 3 3 3 3 3 3 3 3 3 3 3 3 3 3 3 3 3
7 7 7 7 7 6 6 6 6 5 5 5 5 5 5 5 4 4 4 4 3 3 3 3 3 3 3 3 3 3 3 3 3 3 2 2 2 2 2 2 2 2 2
7 7 6 6 6 6 6 5 5 5 5 5 4 4 4 4 4 4 3 3 3 3 2 2 3 2 2 2 2 2 2 2 2 2 2 2 2 2 2 2 1 1 1
6 6 6 6 6 6 5 5 5 5 4 4 4 4 4 3 3 3 3 3 2 2 2 2 2 2 2 1 1 1 1 1 1 1 1 1 1 1 1 1 1 1 1
6 6 6 5 5 5 5 5 5 4 4 4 4 3 3 3 3 3 2 2 2 2 1 1 1 1 1 1 0 1 1 1 1 1 1 0 0 0 0 0 0 0 0
6 5 5 5 5 5 5 4 4 4 4 4 3 3 3 2 2 2 2 1 1 1 1 1 0 0 0 0 -0 -0 -0 0 0 0 0 0 -0 -0 -0 -0 -0 -1 -1
5 5 5 5 4 4 4 4 4 4 3 3 3 3 3 2 2 1 1 1 1 1 0 0 -0 -0 -0 -1 -1 -1 -1 -1 -1 -1 -1 -0 -1 -1 -1 -1 -1 -1 -1
5 4 4 4 4 4 4 3 3 3 3 3 3 2 2 2 2 1 1 1 1 0 -0 -0 -1 -0 -1 -1 -2 -2 -2 -2 -2 -2 -2 -1 -1 -1 -1 -1 -1 -2 -2
4 4 4 4 4 3 3 3 3 3 2 2 2 2 2 2 1 1 0 0 0 0 -0 -1 -1 -1 -1 -2 -2 -2 -3 -3 -2 -3 -3 -3 -2 -2 -2 -2 -2 -2 -2
4 4 3 3 3 3 3 3 2 2 2 2 2 2 1 1 1 -0 -0 -0 -0 -0 -1 -1 -1 -2 -2 -2 -3 -3 -3 -3 -3 -3 -3 -4 -3 -3 -2 -2 -2 -3 -3
3 3 3 3 3 3 2 2 2 2 2 2 1 1 1 0 0 -0 -1 -1 -1 -1 -1 -2 -2 -2 -2 -3 -3 -3 -4 -4 -4 -4 -4 -4 -4 -4 -4 -3 -3 -3 -3
Wind_Speed
3 4 4 5 5 5 4 3 3 3 3 4 5 5 4 5 4 5 6 7 7 7 8 8 8 8 8 8 9 8 8 8 8 8 8 6 6 7 7 6 6 7 8
5 4 4 4 5 5 6 5 4 3 2 3 3 4 4 5 5 6 6 7 7 8 8 9 9 9 9 9 9 9 9 9 9 9 9 8 7 7 7 7 7 7 7
7 5 3 3 5 6 6 5 4 3 2 2 3 3 4 5 5 6 6 6 6 8 9 9 10 10 10 10 10 10 10 10 10 10 10 9 8 8 7 7 7 7 7
7 5 3 3 6 7 5 2 2 3 3 3 3 3 2 3 4 5 7 8 7 7 7 7 8 9 10 10 11 11 11 11 10 10 10 10 9 9 9 8 8 7 8
7 6 4 4 6 5 4 3 3 3 3 3 2 2 1 1 2 4 5 6 7 6 6 7 7 8 9 10 11 12 12 12 11 11 11 10 10 10 9 9 8 8 8
7 6 4 6 6 3 4 4 4 3 2 3 3 2 1 0 1 3 3 4 5 6 7 6 7 7 8 10 11 12 13 13 12 12 11 11 11 10 10 9 9 9 9
6 6 4 4 4 3 3 4 3 3 3 3 2 2 1 1 2 2 2 2 3 5 6 6 7 7 7 8 10 12 13 13 12 12 12 12 12 11 10 10 10 10 10
5 5 4 3 3 3 4 4 3 3 2 3 2 2 2 1 1 1 2 1 1 3 4 5 6 6 6 7 8 10 12 13 12 12 12 12 12 12 12 12 11 11 11
3 4 4 3 3 2 2 3 3 3 2 2 2 2 1 2 2 1 1 1 1 1 2 3 4 5 5 6 6 8 10 12 12 12 12 12 12 12 12 12 12 11 11
2 2 2 3 2 2 2 2 2 2 2 2 2 1 0 0 1 2 2 1 0 0 1 1 2 3 4 4 5 7 10 11 12 12 12 12 12 12 12 12 12 11 11
1 1 1 2 2 1 2 2 2 1 1 1 1 2 2 2 1 1 3 3 2 1 0 1 1 1 2 4 5 7 9 10 11 12 12 12 12 12 12 12 12 12 12
1 1 1 0 1 1 1 1 1 1 1 1 1 1 1 1 1 1 2 3 3 2 2 1 1 1 1 3 5 7 9 10 11 11 12 12 12 11 12 12 12 13 12
2 2 1 1 0 0 1 1 1 1 1 1 1 1 1 1 1 1 2 3 3 3 2 1 1 1 1 3 4 7 8 9 10 11 12 12 11 11 11 12 12 12 12
2 2 2 2 1 1 1 1 1 2 1 1 2 1 1 1 1 1 1 2 3 3 2 2 1 2 1 2 5 6 8 9 10 11 11 11 11 11 11 11 11 12 11
2 2 2 2 2 2 2 2 2 2 2 2 2 2 2 2 1 1 1 1 2 3 3 2 0 1 2 2 5 6 7 10 11 11 11 10 10 10 10 10 11 11 11
2 3 3 3 3 3 2 2 2 2 2 2 2 2 2 2 2 2 2 2 2 3 4 2 2 2 2 4 7 7 8 10 10 11 10 10 10 9 9 9 10 10 10
3 4 4 4 4 4 3 3 4 3 3 3 3 3 3 3 3 2 2 2 3 3 5 4 3 3 2 3 6 7 9 9 9 10 11 10 10 10 10 9 9 10 11
4 4 4 4 4 4 4 4 4 4 4 4 4 4 4 3 3 3 3 3 4 4 4 6 5 3 4 3 4 4 6 8 8 10 10 10 9 9 10 10 9 10 10
4 4 4 5 5 4 4 4 5 4 4 5 4 4 4 4 4 4 4 4 4 4 4 5 5 3 3 3 4 4 5 5 8 8 8 8 9 10 10 10 9 10 10
4 4 4 5 5 4 4 4 4 4 4 4 4 5 4 5 5 5 5 5 4 4 4 4 5 4 4 3 2 3 4 4 5 6 7 8 9 10 10 10 10 10 10
4 4 4 4 4 4 4 4 4 4 4 5 5 5 5 6 7 6 5 4 4 4 4 4 5 4 4 3 3 2 4 4 5 2 3 5 6 6 7 9 10 10 11
4 4 4 4 4 4 5 7 5 4 5 5 5 5 5 6 8 10 10 8 7 6 5 5 5 5 5 4 3 3 3 3 4 3 4 6 3 4 4 6 9 10 11
4 4 4 4 5 5 7 7 7 5 5 5 5 5 5 5 7 5 8 10 9 11 10 6 6 6 5 4 3 3 3 4 5 4 4 5 3 4 5 8 10 11 11
4 4 4 5 5 6 7 8 8 5 5 5 6 6 5 5 5 5 5 5 6 7 8 6 6 6 5 4 3 3 4 4 4 3 2 4 3 4 5 7 10 9 9
4 4 4 4 5 6 8 8 7 4 4 6 5 5 5 5 9 9 6 6 6 6 8 10 11 10 10 9 6 2 2 3 4 3 1 2 3 4 4 4 5 7 9
4 4 4 5 6 6 8 8 8 4 4 4 4 5 7 8 9 9 6 6 7 6 5 5 5 7 6 7 8 4 3 4 3 3 1 1 2 3 4 3 2 5 8
Wind_Direction
45 33 38 34 26 10 359 346 354 6 2 8 7 7 6 12 30 63 84 80 67 49 37 26 21 18 16 15 15 15 14 10 5 2 357 346 339 335 321 306 295 290 288
48 36 32 25 19 9 356 358 8 10 8 11 8 9 7 12 30 50 83 84 71 57 44 35 28 24 21 21 20 19 17 13 9 5 0 353 344 338 334 322 309 303 297
46 41 33 26 10 1 3 4 3 6 10 16 12 7 15 23 28 45 65 75 73 66 54 42 35 31 27 25 22 20 18 14 9 4 360 357 350 343 338 331 327 321 315
43 41 33 25 12 4 4 358 13 10 5 10 8 354 11 25 29 50 61 64 60 58 52 45 37 31 28 24 20 19 17 13 7 0 356 355 354 351 346 343 338 331 326
38 44 36 25 15 11 2 2 23 10 356 359 348 334 1 22 30 57 68 70 66 56 46 40 37 33 29 24 18 16 16 13 10 5 -0 355 349 345 343 343 343 340 334
34 37 41 29 16 19 9 8 13 11 355 352 338 333 309 166 69 65 61 67 66 58 44 33 33 28 28 24 19 13 11 8 7 6 2 357 352 348 347 348 348 345 340
31 33 32 32 23 24 14 7 11 10 6 357 352 328 299 147 112 99 75 63 60 56 45 38 40 31 24 21 18 13 7 3 3 4 2 0 357 353 353 354 351 348 345
32 25 25 28 22 18 18 13 16 6 353 15 13 336 335 327 323 133 110 102 58 55 50 43 45 34 36 34 16 9 4 359 356 356 356 356 355 356 357 355 352 347 345
54 35 22 26 15 22 23 6 17 21 351 350 35 43 17 316 322 290 214 144 103 74 73 49 48 31 29 37 22 6 360 353 350 350 349 348 348 349 351 350 348 345 345
87 49 24 26 18 15 8 352 35 13 3 340 342 11 226 284 315 310 291 244 141 102 98 63 49 32 28 32 22 11 357 348 345 344 343 343 343 343 342 344 344 343 343
145 109 36 22 16 16 12 6 15 11 357 345 334 329 318 306 251 238 289 304 312 268 177 152 116 45 26 20 14 5 352 344 342 340 338 339 339 339 340 341 341 340 340
180 171 176 324 347 14 1 346 334 343 333 327 323 322 320 315 322 298 287 303 298 278 264 222 179 162 54 19 356 350 343 336 335 335 335 337 339 339 340 338 338 338 336
193 197 186 223 255 286 296 317 317 309 294 297 297 304 319 287 305 305 293 294 295 286 248 231 198 162 56 19 353 345 337 331 331 330 331 334 336 336 336 335 336 336 334
202 179 190 217 226 231 270 282 270 264 259 254 266 267 269 275 275 265 264 292 300 291 267 254 244 159 28 352 339 337 329 324 326 327 328 331 331 333 334 336 336 336 335
206 186 201 220 225 221 233 249 257 265 253 238 243 247 247 257 248 255 267 230 238 281 288 260 270 277 325 324 325 324 319 316 318 318 320 325 327 331 332 334 335 335 335
211 208 219 222 224 224 223 229 246 255 253 242 234 240 250 253 242 230 238 252 233 233 266 284 277 290 316 325 320 319 312 313 314 315 316 318 320 325 329 332 335 334 334
219 219 224 223 225 230 227 224 233 237 241 246 243 235 242 247 248 236 230 237 241 235 259 281 285 295 304 306 316 313 311 307 307 312 314 315 317 322 325 328 330 334 335
223 219 221 226 231 232 229 226 234 235 234 240 244 242 243 241 246 244 238 238 240 237 245 270 288 295 289 289 299 305 311 312 310 311 315 316 320 326 327 325 327 330 333
225 223 219 224 229 232 233 235 235 235 234 234 235 240 244 238 244 243 240 242 246 251 244 257 275 284 289 297 307 310 310 311 312 312 315 321 323 324 325 323 324 325 328
226 228 228 228 228 230 233 236 239 241 241 240 235 235 237 237 244 244 244 242 244 252 256 257 268 278 283 290 298 303 312 314 314 313 314 320 319 322 322 321 322 323 323
234 232 231 232 229 229 231 231 242 245 242 246 245 242 237 235 239 243 246 240 240 247 254 257 265 275 278 291 286 288 299 311 309 304 325 315 311 305 307 312 317 319 321
238 236 236 234 234 237 238 239 243 244 244 242 247 247 245 241 245 252 255 253 244 242 244 249 259 263 269 271 279 293 301 320 309 321 332 308 302 293 292 297 308 316 318
237 240 240 235 237 241 244 245 245 243 243 245 246 247 254 249 248 243 256 260 260 259 254 248 250 253 258 263 276 288 285 282 275 286 314 294 288 287 291 303 310 312 315
240 241 243 240 242 245 242 244 245 242 243 247 247 245 246 251 245 239 240 249 252 256 257 253 247 250 250 247 238 255 265 284 281 279 274 278 292 290 299 299 305 307 315
245 246 244 240 244 249 243 243 239 232 243 251 253 252 247 247 255 252 243 248 258 259 257 252 253 256 261 267 264 256 272 287 291 288 273 271 296 310 298 286 301 314 318
241 244 248 241 240 246 247 242 235 226 241 251 255 255 255 255 260 259 245 242 256 260 255 262 258 260 259 262 264 238 223 247 270 281 275 296 299 335 315 294 297 313 314
Height
1531 1531 1532 1532 1532 1533 1533 1533 1533 1533 1533 1533 1533 1533 1533 1533 1533 1532 1531 1531 1530 1530 1529 1529 1528 1528 1527 1527 1526 1525 1524 1524 1523 1523 1523 1522 1522 1522 1521 1521 1521 1521 1521
1529 1530 1531 1532 1532 1532 1532 1532 1532 1532 1532 1532 1532 1532 1532 1531 1531 1531 1530 1529 1529 1528 1528 1527 1527 1526 1525 1524 1524 1523 1522 1521 1521 1520 1520 1519 1519 1519 1518 1518 1518 1517 1517
1529 1529 1530 1530 1531 1531 1531 1531 1531 1531 1531 1531 1531 1530 1530 1530 1529 1529 1528 1528 1527 1526 1526 1526 1525 1524 1523 1522 1522 1521 1520 1519 1518 1518 1517 1516 1516 1515 1515 1514 1514 1514 1513
1528 1528 1529 1529 1529 1529 1530 1529 1529 1529 1529 1529 1529 1529 1528 1528 1528 1527 1527 1526 1526 1525 1524 1524 1523 1522 1521 1520 1519 1518 1517 1516 1516 1515 1514 1513 1513 1512 1511 1511 1510 1510 1509
1526 1527 1527 1528 1528 1528 1528 1528 1527 1527 1527 1527 1527 1527 1526 1526 1526 1526 1525 1525 1524 1523 1522 1522 1521 1520 1519 1518 1517 1516 1515 1514 1513 1512 1511 1510 1510 1509 1508 1507 1507 1506 1505
1526 1526 1526 1526 1527 1527 1527 1526 1526 1526 1526 1525 1525 1525 1525 1525 1524 1524 1524 1523 1522 1521 1521 1520 1519 1518 1517 1516 1515 1514 1513 1512 1511 1510 1509 1507 1506 1506 1505 1504 1503 1502 1502
1525 1525 1525 1525 1525 1525 1525 1525 1524 1524 1524 1524 1523 1523 1523 1523 1522 1522 1522 1521 1521 1520 1519 1518 1516 1516 1515 1514 1513 1511 1510 1509 1508 1507 1506 1505 1504 1503 1501 1500 1499 1499 1498
1524 1524 1524 1524 1524 1524 1523 1524 1523 1522 1522 1522 1522 1521 1521 1522 1521 1520 1520 1519 1519 1518 1517 1516 1514 1513 1512 1511 1510 1509 1508 1507 1506 1504 1503 1502 1501 1500 1498 1497 1496 1495 1494
1523 1523 1523 1522 1523 1522 1522 1522 1522 1521 1521 1521 1521 1521 1521 1520 1520 1519 1518 1517 1517 1516 1515 1514 1512 1511 1510 1509 1508 1506 1505 1504 1502 1501 1500 1499 1497 1496 1495 1493 1492 1491 1490
1522 1522 1521 1521 1521 1521 1521 1520 1520 1519 1519 1519 1519 1519 1520 1519 1519 1517 1517 1515 1514 1513 1513 1512 1510 1509 1508 1506 1505 1504 1502 1501 1499 1498 1497 1495 1494 1492 1491 1490 1488 1487 1485
1520 1520 1520 1520 1519 1519 1519 1518 1518 1517 1517 1517 1517 1517 1517 1517 1516 1516 1514 1513 1512 1511 1510 1509 1508 1507 1505 1504 1502 1501 1499 1498 1496 1495 1493 1491 1490 1488 1487 1485 1484 1482 1481
1518 1518 1518 1517 1517 1517 1516 1516 1516 1515 1515 1515 1514 1514 1514 1514 1514 1513 1512 1510 1509 1508 1507 1506 1505 1504 1503 1501 1499 1498 1496 1495 1493 1491 1489 1487 1486 1484 1482 1481 1480 1478 1476
1516 1516 1515 1515 1515 1515 1514 1513 1513 1513 1513 1512 1512 1512 1511 1511 1511 1511 1510 1508 1506 1504 1503 1503 1502 1501 1500 1498 1496 1495 1493 1491 1489 1488 1486 1484 1482 1480 1478 1477 1475 1474 1472
1514 1514 1513 1513 1512 1512 1511 1511 1510 1510 1510 1509 1509 1509 1508 1508 1508 1507 1507 1506 1503 1502 1501 1500 1498 1498 1496 1495 1493 1491 1489 1487 1486 1484 1482 1480 1478 1477 1475 1473 1471 1470 1468
1511 1511 1511 1510 1510 1509 1509 1508 1508 1507 1507 1506 1506 1506 1505 1505 1504 1504 1503 1503 1502 1499 1497 1496 1495 1494 1493 1491 1490 1487 1485 1484 1482 1480 1478 1476 1475 1473 1471 1469 1467 1465 1464
1508 1508 1507 1507 1507 1506 1506 1505 1505 1504 1504 1503 1503 1502 1502 1501 1501 1500 1500 1499 1498 1497 1495 1493 1492 1491 1489 1487 1486 1484 1482 1480 1478 1476 1474 1472 1471 1469 1467 1465 1463 1461 1459
1505 1504 1504 1504 1503 1503 1502 1502 1502 1501 1500 1500 1499 1499 1498 1498 1497 1496 1495 1495 1494 1493 1490 1488 1488 1486 1485 1483 1482 1480 1478 1476 1474 1472 1470 1468 1466 1465 1463 1461 1459 1457 1455
1501 1501 1501 1500 1500 1499 1499 1498 1498 1497 1497 1496 1495 1495 1494 1494 1493 1492 1491 1490 1489 1488 1487 1484 1483 1482 1481 1479 1477 1476 1474 1472 1470 1468 1466 1464 1462 1460 1458 1456 1454 1452 1451
1497 1497 1497 1496 1496 1495 1495 1494 1494 1493 1493 1492 1491 1490 1490 1489 1488 1487 1486 1485 1485 1484 1482 1480 1478 1478 1476 1475 1473 1471 1470 1468 1466 1464 1462 1460 1458 1456 1454 1452 1450 1448 1446
1493 1493 1492 1492 1492 1491 1491 1490 1490 1489 1488 1488 1487 1486 1485 1485 1484 1483 1482 1481 1480 1479 1478 1476 1474 1473 1472 1470 1469 1467 1465 1463 1462 1460 1458 1456 1454 1452 1450 1448 1446 1444 1442
1489 1488 1488 1487 1487 1487 1486 1486 1485 1484 1484 1483 1482 1482 1481 1480 1479 1478 1477 1476 1475 1474 1473 1471 1469 1468 1466 1465 1464 1462 1460 1458 1457 1455 1453 1452 1450 1448 1446 1444 1442 1440 1437
1484 1484 1483 1483 1482 1482 1482 1481 1480 1480 1479 1478 1477 1477 1476 1475 1474 1473 1472 1471 1470 1469 1468 1466 1465 1463 1462 1461 1460 1458 1456 1454 1451 1451 1449 1447 1446 1443 1441 1440 1438 1435 1433
1480 1479 1479 1478 1478 1477 1477 1476 1476 1475 1474 1473 1472 1472 1471 1470 1469 1468 1467 1466 1465 1464 1463 1462 1460 1459 1458 1457 1456 1454 1452 1450 1448 1447 1444 1441 1441 1439 1437 1435 1433 1431 1429
1475 1475 1474 1474 1473 1473 1472 1472 1471 1470 1469 1468 1468 1467 1466 1465 1464 1463 1461 1460 1459 1458 1457 1456 1455 1454 1453 1452 1451 1450 1448 1446 1444 1443 1441 1437 1436 1434 1433 1431 1429 1427 1425
1471 1470 1470 1469 1468 1468 1468 1467 1466 1465 1464 1463 1463 1462 1461 1459 1459 1458 1456 1454 1453 1452 1452 1451 1450 1449 1448 1448 1447 1446 1444 1442 1439 1438 1438 1435 1431 1429 1427 1426 1425 1423 1421
1466 1466 1465 1465 1464 1463 1463 1462 1461 1460 1459 1458 1457 1456 1455 1454 1453 1452 1451 1449 1448 1447 1446 1445 1445 1444 1443 1442 1442 1441 1440 1438 1436 1434 1433 1432 1429 1426 1423 1421 1420 1419 1417